When you browse on this site, cookies collect data to enhance your experience and personalize the content and advertising you see.
Visit our Privacy Policy to learn more. By continuing to use the site, you agree to this use of cookies and data.
  • în România
  • Lista ţărilor
  • Pe 7 zile
  • Temperatura apei
  • Hartă satelitară
  • Meteo pe hartă
  • Widget-uri
  • user-avatar
    Intrare

    Meteo pe oră la Danville

    Astăzi, 22 Februarie, Vineri

    Timp Temperatura Precipitaţii Vânt Presiune Umiditate
    00:00 +1°C° 0 mm 1 m/s 753 mmHg 71%
    01:00 -2°C° 0 mm 2 m/s 753 mmHg 71%
    02:00 -2°C° 0 mm 2 m/s 754 mmHg 71%
    03:00 -2°C° 0 mm 2 m/s 754 mmHg 71%
    04:00 -2°C° 0 mm 2 m/s 754 mmHg 72%
    05:00 -4°C° 0 mm 3 m/s 754 mmHg 72%
    06:00 -4°C° 0 mm 3 m/s 755 mmHg 73%
    07:00 -2°C° 0 mm 3 m/s 755 mmHg 69%
    08:00 -1°C° 0 mm 3 m/s 755 mmHg 65%
    09:00 -1°C° 0 mm 4 m/s 755 mmHg 62%
    10:00 0°C° 0 mm 4 m/s 755 mmHg 57%
    11:00 +3°C° 0 mm 3 m/s 755 mmHg 53%
    12:00 +5°C° 0 mm 3 m/s 755 mmHg 48%
    13:00 +5°C° 0 mm 3 m/s 755 mmHg 48%
    14:00 +7°C° 0 mm 3 m/s 754 mmHg 48%
    15:00 +8°C° 0 mm 3 m/s 754 mmHg 48%
    16:00 +7°C° 0 mm 3 m/s 753 mmHg 55%
    17:00 +5°C° 0 mm 3 m/s 753 mmHg 62%
    18:00 +4°C° 0 mm 3 m/s 752 mmHg 68%
    19:00 +3°C° 0 mm 3 m/s 752 mmHg 70%
    20:00 +3°C° 0 mm 4 m/s 752 mmHg 72%
    21:00 +1°C° 0 mm 4 m/s 751 mmHg 75%
    22:00 +2°C° 0 mm 3 m/s 751 mmHg 74%
    23:00 +3°C° 0 mm 3 m/s 751 mmHg 74%

    Mâine, 23 Februarie, Sâmbătă

    Timp Temperatura Precipitaţii Vânt Presiune Umiditate
    00:00 +3°C° 0 mm 3 m/s 751 mmHg 74%
    01:00 +3°C° 0 mm 3 m/s 750 mmHg 75%
    02:00 +1°C° 0 mm 4 m/s 749 mmHg 77%
    03:00 +1°C° 0 mm 4 m/s 748 mmHg 78%
    04:00 +1°C° 0 mm 4 m/s 748 mmHg 81%
    05:00 +1°C° 0 mm 4 m/s 747 mmHg 85%
    06:00 +1°C° 0 mm 4 m/s 746 mmHg 88%
    07:00 +3°C° 0.1 mm 4 m/s 745 mmHg 89%
    08:00 +3°C° 0.1 mm 5 m/s 745 mmHg 91%
    09:00 +3°C° 0.1 mm 5 m/s 744 mmHg 93%
    10:00 +6°C° 0 mm 5 m/s 744 mmHg 92%
    11:00 +7°C° 0 mm 5 m/s 743 mmHg 92%
    12:00 +10°C° 0 mm 4 m/s 742 mmHg 91%
    13:00 +9°C° 0.3 mm 5 m/s 740 mmHg 93%
    14:00 +9°C° 0.3 mm 5 m/s 739 mmHg 94%
    15:00 +10°C° 0.3 mm 6 m/s 737 mmHg 96%
    16:00 +11°C° 0.3 mm 7 m/s 736 mmHg 95%
    17:00 +13°C° 0.3 mm 8 m/s 734 mmHg 94%
    18:00 +15°C° 0.3 mm 9 m/s 733 mmHg 94%
    19:00 +15°C° 0.8 mm 9 m/s 732 mmHg 89%
    20:00 +16°C° 0.8 mm 9 m/s 732 mmHg 85%
    21:00 +16°C° 0.8 mm 8 m/s 731 mmHg 81%
    22:00 +13°C° 0 mm 9 m/s 731 mmHg 72%
    23:00 +12°C° 0 mm 9 m/s 731 mmHg 63%

    Poimâine, 24 Februarie, Duminică

    Timp Temperatura Precipitaţii Vânt Presiune Umiditate
    00:00 +10°C° 0 mm 9 m/s 730 mmHg 54%
    01:00 +8°C° 0 mm 9 m/s 730 mmHg 60%
    02:00 +7°C° 0 mm 9 m/s 730 mmHg 66%
    03:00 +6°C° 0 mm 9 m/s 729 mmHg 72%
    04:00 +5°C° 0.1 mm 10 m/s 731 mmHg 70%
    05:00 +3°C° 0.1 mm 12 m/s 732 mmHg 69%
    06:00 +1°C° 0.1 mm 13 m/s 733 mmHg 68%
    07:00 +1°C° 0 mm 13 m/s 735 mmHg 67%
    08:00 0°C° 0 mm 12 m/s 737 mmHg 67%
    09:00 0°C° 0 mm 12 m/s 738 mmHg 66%
    10:00 0°C° 0 mm 12 m/s 740 mmHg 62%
    11:00 0°C° 0 mm 12 m/s 741 mmHg 58%
    12:00 +1°C° 0 mm 11 m/s 742 mmHg 54%
    13:00 0°C° 0 mm 12 m/s 743 mmHg 51%
    14:00 0°C° 0 mm 12 m/s 743 mmHg 48%
    15:00 0°C° 0 mm 12 m/s 744 mmHg 45%
    16:00 -1°C° 0 mm 11 m/s 745 mmHg 49%
    17:00 -3°C° 0 mm 11 m/s 746 mmHg 53%
    18:00 -4°C° 0 mm 10 m/s 747 mmHg 57%
    19:00 -5°C° 0 mm 10 m/s 748 mmHg 58%
    20:00 -6°C° 0 mm 9 m/s 749 mmHg 59%
    21:00 -8°C° 0 mm 9 m/s 750 mmHg 60%
    22:00 -8°C° 0 mm 9 m/s 751 mmHg 59%
    23:00 -8°C° 0 mm 8 m/s 752 mmHg 58%

    25 Februarie, Luni

    Timp Temperatura Precipitaţii Vânt Presiune Umiditate
    00:00 -8°C° 0 mm 8 m/s 752 mmHg 57%
    01:00 -8°C° 0 mm 7 m/s 753 mmHg 56%
    02:00 -9°C° 0 mm 7 m/s 754 mmHg 55%
    03:00 -9°C° 0 mm 6 m/s 754 mmHg 55%
    04:00 -10°C° 0 mm 6 m/s 755 mmHg 53%
    05:00 -10°C° 0 mm 5 m/s 756 mmHg 52%
    06:00 -11°C° 0 mm 5 m/s 756 mmHg 50%
    07:00 -9°C° 0 mm 4 m/s 757 mmHg 46%
    08:00 -9°C° 0 mm 4 m/s 757 mmHg 42%
    09:00 -7°C° 0 mm 3 m/s 757 mmHg 39%
    10:00 -6°C° 0 mm 3 m/s 757 mmHg 34%
    11:00 -3°C° 0 mm 2 m/s 757 mmHg 29%
    12:00 0°C° 0 mm 1 m/s 756 mmHg 24%
    13:00 -1°C° 0 mm 2 m/s 756 mmHg 24%
    14:00 +1°C° 0 mm 2 m/s 756 mmHg 23%
    15:00 +1°C° 0 mm 2 m/s 755 mmHg 23%
    16:00 +1°C° 0 mm 1 m/s 755 mmHg 28%
    17:00 +1°C° 0 mm 1 m/s 755 mmHg 32%
    18:00 -1°C° 0 mm 0 m/s 755 mmHg 36%
    19:00 -1°C° 0 mm 1 m/s 755 mmHg 38%
    20:00 -1°C° 0 mm 1 m/s 755 mmHg 39%
    21:00 -3°C° 0 mm 2 m/s 755 mmHg 41%
    22:00 -3°C° 0 mm 2 m/s 755 mmHg 41%
    23:00 -3°C° 0 mm 2 m/s 755 mmHg 42%

    26 Februarie, Marţi

    Timp Temperatura Precipitaţii Vânt Presiune Umiditate
    00:00 -4°C° 0 mm 2 m/s 755 mmHg 43%
    01:00 -4°C° 0 mm 2 m/s 754 mmHg 44%
    02:00 -3°C° 0 mm 2 m/s 754 mmHg 45%
    03:00 -4°C° 0 mm 3 m/s 754 mmHg 46%
    04:00 -4°C° 0 mm 3 m/s 754 mmHg 48%
    05:00 -4°C° 0 mm 3 m/s 754 mmHg 50%
    06:00 -4°C° 0 mm 3 m/s 754 mmHg 51%
    07:00 -2°C° 0 mm 3 m/s 754 mmHg 51%
    08:00 0°C° 0 mm 3 m/s 754 mmHg 50%
    09:00 +1°C° 0 mm 3 m/s 754 mmHg 50%
    10:00 +3°C° 0 mm 3 m/s 753 mmHg 49%
    11:00 +5°C° 0 mm 3 m/s 752 mmHg 49%
    12:00 +8°C° 0 mm 4 m/s 752 mmHg 49%
    13:00 +8°C° 0 mm 4 m/s 751 mmHg 49%
    14:00 +10°C° 0 mm 4 m/s 750 mmHg 50%
    15:00 +10°C° 0 mm 5 m/s 749 mmHg 51%
    16:00 +8°C° 0 mm 4 m/s 748 mmHg 58%
    17:00 +7°C° 0 mm 4 m/s 748 mmHg 65%
    18:00 +6°C° 0 mm 4 m/s 748 mmHg 72%
    19:00 +5°C° 0 mm 4 m/s 748 mmHg 75%
    20:00 +5°C° 0 mm 4 m/s 747 mmHg 78%
    21:00 +5°C° 0 mm 4 m/s 747 mmHg 81%
    22:00 +4°C° 0 mm 4 m/s 747 mmHg 82%
    23:00 +4°C° 0 mm 4 m/s 746 mmHg 84%

    27 Februarie, Miercuri

    Timp Temperatura Precipitaţii Vânt Presiune Umiditate
    00:00 +4°C° 0 mm 4 m/s 746 mmHg 86%
    01:00 +4°C° 0 mm 4 m/s 745 mmHg 87%
    02:00 +4°C° 0 mm 4 m/s 745 mmHg 87%
    03:00 +4°C° 0 mm 4 m/s 745 mmHg 88%
    04:00 +5°C° 0.1 mm 4 m/s 744 mmHg 89%
    05:00 +5°C° 0.1 mm 4 m/s 744 mmHg 90%
    06:00 +6°C° 0.1 mm 4 m/s 744 mmHg 92%
    07:00 +6°C° 0.2 mm 4 m/s 744 mmHg 93%
    08:00 +6°C° 0.2 mm 4 m/s 743 mmHg 94%
    09:00 +7°C° 0.2 mm 4 m/s 743 mmHg 95%
    10:00 +8°C° 0.1 mm 4 m/s 743 mmHg 93%
    11:00 +10°C° 0.1 mm 4 m/s 743 mmHg 92%
    12:00 +10°C° 0.1 mm 4 m/s 743 mmHg 90%
    13:00 +10°C° 0.3 mm 4 m/s 743 mmHg 90%
    14:00 +8°C° 0.3 mm 5 m/s 743 mmHg 90%
    15:00 +7°C° 0.3 mm 6 m/s 743 mmHg 90%
    16:00 +4°C° 0.1 mm 6 m/s 743 mmHg 85%
    17:00 +2°C° 0.1 mm 7 m/s 744 mmHg 79%
    18:00 0°C° 0.1 mm 7 m/s 745 mmHg 73%
    19:00 -2°C° 0 mm 7 m/s 746 mmHg 71%
    20:00 -4°C° 0 mm 7 m/s 747 mmHg 69%
    21:00 -6°C° 0 mm 7 m/s 748 mmHg 67%
    22:00 -7°C° 0 mm 7 m/s 748 mmHg 65%
    23:00 -8°C° 0 mm 6 m/s 749 mmHg 63%
    Arată mai mult